| time (UTC) | temp C | wind direction | speed KPH | gust KPH | rain 1hr cm | rain 24hr cm | rain mn cm | humidity % | barometer mb |
| 20260506103936 | 10 | 233 | 1.6 | 6.4 | 0.10 | 1.27 | 1.12 | 95 | 1008.0 |
| 20260506102909 | 10 | 349 | 1.6 | 6.4 | 0.00 | 1.24 | 1.12 | 94 | 1007.9 |
| 20260506101911 | 10 | 21 | 0.0 | 6.4 | 0.00 | 1.22 | 1.09 | 95 | 1007.8 |
| 20260506100935 | 10 | 229 | 1.6 | 8.0 | 0.00 | 1.22 | 1.09 | 94 | 1007.7 |
| 20260506095914 | 10 | 355 | 0.0 | 8.0 | 0.00 | 1.22 | 1.07 | 94 | 1007.7 |
| 20260506094900 | 10 | 342 | 0.0 | 8.0 | 0.08 | 1.22 | 1.07 | 95 | 1007.6 |
| 20260506093900 | 10 | 335 | 0.0 | 6.4 | 0.08 | 1.22 | 1.07 | 95 | 1007.6 |
| 20260506092911 | 10 | 249 | 0.0 | 6.4 | 0.08 | 1.19 | 1.04 | 95 | 1007.6 |
| 20260506091928 | 10 | 315 | 0.0 | 6.4 | 0.00 | 1.17 | 1.02 | 94 | 1007.4 |
| 20260506090951 | 10 | 14 | 1.6 | 6.4 | 0.00 | 1.17 | 1.02 | 94 | 1007.4 |
| 20260506085936 | 10 | 338 | 1.6 | 8.0 | 0.00 | 1.14 | 1.02 | 94 | 1007.3 |
| 20260506084940 | 10 | 349 | 1.6 | 8.0 | 0.00 | 1.14 | 1.02 | 94 | 1007.2 |
| 20260506083938 | 10 | 336 | 1.6 | 4.8 | 0.00 | 1.14 | 1.02 | 95 | 1007.1 |
| 20260506082956 | 10 | 332 | 0.0 | 4.8 | 0.00 | 1.14 | 1.02 | 95 | 1007.0 |
| 20260506081939 | 10 | 325 | 0.0 | 4.8 | 0.00 | 1.14 | 1.02 | 95 | 1006.9 |
| 20260506072730 | 10 | 313 | 0.0 | 4.8 | 0.00 | 1.12 | 0.99 | 95 | 1006.6 |
| 20260506071752 | 10 | 306 | 0.0 | 6.4 | 0.00 | 1.12 | 0.97 | 95 | 1006.6 |
| 20260506070751 | 10 | 10 | 1.6 | 6.4 | 0.00 | 1.12 | 0.97 | 95 | 1006.6 |
| 20260506060417 | 10 | 342 | 0.0 | 4.8 | 0.00 | 1.09 | 0.94 | 95 | 1006.3 |
| 20260506051152 | 10 | 12 | 0.0 | 4.8 | 0.10 | 1.04 | 0.91 | 95 | 1006.3 |
| 20260506050136 | 10 | 344 | 0.0 | 4.8 | 0.25 | 1.02 | 0.89 | 95 | 1006.4 |
| 20260506045117 | 10 | 336 | 0.0 | 3.2 | 0.28 | 0.99 | 0.84 | 95 | 1006.3 |
| 20260506044137 | 10 | 277 | 0.0 | 1.6 | 0.18 | 0.94 | 0.81 | 95 | 1006.4 |
| 20260506043203 | 10 | 236 | 0.0 | 3.2 | 0.00 | 0.94 | 0.79 | 95 | 1006.4 |
| 20260506042156 | 10 | 257 | 0.0 | 3.2 | 0.00 | 0.91 | 0.76 | 95 | 1006.4 |
| 20260506041220 | 10 | 246 | 0.0 | 8.0 | 0.00 | 0.91 | 0.74 | 95 | 1006.4 |
| 20260506040214 | 10 | 345 | 0.0 | 8.0 | 0.08 | 0.91 | 0.74 | 95 | 1006.5 |
| 20260506035220 | 10 | 224 | 0.0 | 4.8 | 0.08 | 0.91 | 0.74 | 95 | 1006.5 |
| 20260506034152 | 10 | 331 | 0.0 | 4.8 | 0.08 | 0.89 | 0.74 | 95 | 1006.4 |
| 20260506033200 | 10 | 261 | 0.0 | 4.8 | 0.08 | 0.89 | 0.71 | 95 | 1006.4 |
| 20260506032148 | 10 | 234 | 0.0 | 8.0 | 0.08 | 0.86 | 0.69 | 95 | 1006.4 |
| 20260506031201 | 10 | 333 | 0.0 | 8.0 | 0.18 | 0.89 | 0.69 | 95 | 1006.4 |
| 20260506030134 | 10 | 329 | 0.0 | 4.8 | 0.08 | 0.86 | 0.64 | 95 | 1006.6 |
| 20260506025123 | 10 | 355 | 0.0 | 4.8 | 0.10 | 0.84 | 0.64 | 95 | 1006.7 |
| 20260506024145 | 10 | 329 | 0.0 | 6.4 | 0.08 | 0.84 | 0.64 | 95 | 1006.8 |
| 20260506023117 | 10 | 217 | 0.0 | 6.4 | 0.08 | 0.86 | 0.61 | 95 | 1006.9 |
| 20260506021017 | 10 | 260 | 0.0 | 1.6 | 0.00 | 0.84 | 0.58 | 95 | 1007.0 |
| 20260506012643 | 10 | 330 | 1.6 | 6.4 | 0.08 | 0.86 | 0.56 | 95 | 1007.0 |
| 20260506011629 | 10 | 226 | 0.0 | 3.2 | 0.18 | 0.84 | 0.53 | 95 | 1007.1 |
| 20260506010650 | 10 | 316 | 0.0 | 4.8 | 0.23 | 0.84 | 0.51 | 95 | 1007.0 |
| 20260506005655 | 10 | 303 | 0.0 | 4.8 | 0.15 | 0.76 | 0.46 | 95 | 1007.1 |
| 20260506004713 | 10 | 335 | 0.0 | 3.2 | 0.18 | 0.74 | 0.43 | 95 | 1007.3 |
| 20260506003639 | 10 | 223 | 0.0 | 3.2 | 0.15 | 0.71 | 0.38 | 95 | 1007.4 |
| 20260506002652 | 10 | 304 | 0.0 | 1.6 | 0.25 | 0.69 | 0.36 | 95 | 1007.4 |
| 20260506001646 | 10 | 307 | 0.0 | 3.2 | 0.15 | 0.64 | 0.33 | 94 | 1007.6 |
| 20260506000652 | 10 | 338 | 0.0 | 3.2 | 0.08 | 0.64 | 0.30 | 95 | 1007.6 |
| 20260505235644 | 10 | 236 | 0.0 | 3.2 | 0.20 | 0.61 | 0.28 | 94 | 1007.8 |
| 20260505234635 | 10 | 252 | 0.0 | 4.8 | 0.08 | 0.56 | 0.28 | 95 | 1007.8 |
| 20260505233632 | 10 | 269 | 0.0 | 4.8 | 0.20 | 0.56 | 0.25 | 94 | 1007.9 |
| 20260505232648 | 10 | 279 | 0.0 | 3.2 | 0.18 | 0.53 | 0.20 | 94 | 1008.0 |
| 20260505231623 | 10 | 302 | 0.0 | 3.2 | 0.08 | 0.48 | 0.18 | 94 | 1008.0 |
| 20260505230640 | 10 | 281 | 0.0 | 1.6 | 0.13 | 0.48 | 0.18 | 94 | 1008.0 |
| 20260505225700 | 10 | 232 | 0.0 | 1.6 | 0.08 | 0.46 | 0.15 | 94 | 1008.0 |
| 20260505224656 | 10 | 249 | 0.0 | 4.8 | 0.25 | 0.46 | 0.13 | 94 | 1008.1 |
| 20260505223711 | 10 | 219 | 0.0 | 4.8 | 0.10 | 0.41 | 0.08 | 94 | 1008.1 |
| 20260505222728 | 10 | 294 | 0.0 | 3.2 | 0.20 | 0.38 | 0.08 | 94 | 1008.1 |
| 20260505221731 | 10 | 341 | 0.0 | 3.2 | 0.36 | 0.36 | 0.05 | 94 | 1008.1 |
| 20260505220740 | 10 | 348 | 0.0 | 0.0 | 0.15 | 0.30 | 0.00 | 94 | 1008.2 |
| 20260505215715 | 11 | 273 | 0.0 | 3.2 | 0.00 | 0.30 | 0.30 | 94 | 1008.3 |
| 20260505214642 | 11 | 334 | 0.0 | 4.8 | 0.00 | 0.28 | 0.28 | 94 | 1008.3 |
| 20260505212509 | 11 | 336 | 0.0 | 3.2 | 0.00 | 0.28 | 0.28 | 93 | 1008.4 |
| 20260505211529 | 11 | 340 | 1.6 | 6.4 | 0.00 | 0.28 | 0.28 | 93 | 1008.5 |
| 20260505210510 | 11 | 5 | 0.0 | 6.4 | 0.00 | 0.28 | 0.28 | 93 | 1008.5 |
| 20260505205503 | 11 | 9 | 0.0 | 4.8 | 0.00 | 0.25 | 0.25 | 93 | 1008.6 |
| 20260505204440 | 11 | 336 | 0.0 | 6.4 | 0.08 | 0.25 | 0.25 | 93 | 1008.6 |
| 20260505203412 | 11 | 345 | 0.0 | 6.4 | 0.08 | 0.25 | 0.25 | 93 | 1008.7 |
| 20260505202437 | 11 | 344 | 0.0 | 4.8 | 0.00 | 0.23 | 0.23 | 93 | 1008.6 |
| 20260505201454 | 11 | 355 | 0.0 | 4.8 | 0.00 | 0.20 | 0.23 | 93 | 1008.6 |
| 20260505200437 | 11 | 254 | 0.0 | 4.8 | 0.00 | 0.20 | 0.20 | 93 | 1008.5 |
| 20260505195454 | 11 | 33 | 0.0 | 4.8 | 0.00 | 0.20 | 0.20 | 93 | 1008.5 |
| 20260505194509 | 11 | 342 | 0.0 | 4.8 | 0.00 | 0.20 | 0.20 | 93 | 1008.5 |
| 20260505193531 | 11 | 344 | 0.0 | 6.4 | 0.00 | 0.18 | 0.18 | 92 | 1008.4 |
| 20260505192516 | 11 | 355 | 1.6 | 6.4 | 0.00 | 0.18 | 0.18 | 92 | 1008.4 |
| 20260505191538 | 11 | 351 | 1.6 | 4.8 | 0.00 | 0.18 | 0.18 | 92 | 1008.4 |
| 20260505190524 | 11 | 335 | 0.0 | 8.0 | 0.00 | 0.18 | 0.18 | 92 | 1008.4 |
| 20260505185458 | 11 | 338 | 1.6 | 8.0 | 0.00 | 0.18 | 0.18 | 92 | 1008.4 |
| 20260505184437 | 11 | 292 | 0.0 | 3.2 | 0.00 | 0.18 | 0.18 | 92 | 1008.4 |
| 20260505183455 | 11 | 261 | 0.0 | 6.4 | 0.00 | 0.18 | 0.18 | 92 | 1008.3 |
| 20260505175039 | 11 | 350 | 1.6 | 8.0 | 0.00 | 0.18 | 0.18 | 91 | 1008.5 |
| 20260505174030 | 11 | 345 | 1.6 | 4.8 | 0.00 | 0.18 | 0.18 | 91 | 1008.5 |
| 20260505173028 | 11 | 348 | 0.0 | 4.8 | 0.00 | 0.18 | 0.18 | 90 | 1008.6 |
| 20260505172003 | 11 | 337 | 1.6 | 6.4 | 0.00 | 0.18 | 0.18 | 90 | 1008.5 |
| 20260505165819 | 12 | 344 | 1.6 | 9.7 | 0.00 | 0.18 | 0.18 | 90 | 1008.6 |
| 20260505164801 | 12 | 5 | 1.6 | 6.4 | 0.00 | 0.18 | 0.18 | 89 | 1008.6 |
| 20260505163727 | 12 | 345 | 1.6 | 6.4 | 0.00 | 0.18 | 0.18 | 90 | 1008.6 |
| 20260505162744 | 12 | 336 | 3.2 | 8.0 | 0.00 | 0.20 | 0.18 | 89 | 1008.6 |
| 20260505161733 | 12 | 355 | 1.6 | 8.0 | 0.00 | 0.20 | 0.18 | 89 | 1008.6 |
| 20260505160710 | 12 | 9 | 3.2 | 6.4 | 0.00 | 0.20 | 0.18 | 89 | 1008.6 |
| 20260505152452 | 12 | 291 | 1.6 | 11.3 | 0.00 | 0.23 | 0.18 | 88 | 1008.8 |
| 20260505151419 | 12 | 341 | 3.2 | 11.3 | 0.00 | 0.25 | 0.18 | 88 | 1008.8 |
| 20260505150439 | 12 | 10 | 3.2 | 8.0 | 0.00 | 0.28 | 0.18 | 88 | 1008.7 |
| 20260505140232 | 13 | 0 | 3.2 | 9.7 | 0.00 | 0.53 | 0.18 | 87 | 1009.1 |
| 20260505130152 | 13 | 0 | 1.6 | 8.0 | 0.00 | 0.58 | 0.18 | 87 | 1009.4 |
| 20260505122918 | 13 | 5 | 1.6 | 9.7 | 0.00 | 0.58 | 0.18 | 88 | 1009.6 |
| 20260505121844 | 13 | 5 | 3.2 | 9.7 | 0.00 | 0.58 | 0.18 | 87 | 1009.6 |
| 20260505120822 | 13 | 340 | 3.2 | 9.7 | 0.00 | 0.58 | 0.18 | 87 | 1009.7 |
| 20260505115753 | 14 | 17 | 3.2 | 8.0 | 0.00 | 0.58 | 0.18 | 87 | 1009.7 |
| 20260505114748 | 14 | 320 | 1.6 | 8.0 | 0.00 | 0.58 | 0.18 | 87 | 1009.8 |
| 20260505113753 | 14 | 37 | 1.6 | 9.7 | 0.00 | 0.58 | 0.18 | 87 | 1009.8 |
| 20260505112723 | 14 | 333 | 3.2 | 9.7 | 0.00 | 0.58 | 0.18 | 86 | 1009.6 |
| 20260505111653 | 15 | 332 | 1.6 | 8.0 | 0.00 | 0.58 | 0.18 | 87 | 1009.7 |
| 20260505110714 | 15 | 5 | 1.6 | 8.0 | 0.00 | 0.58 | 0.18 | 86 | 1009.7 |